QPF
0.01 0.02 0.05 0.04 0.04 0.05 0.05 0.02 0.02 0.01 0.02 0.03 0.03 0.04 0.04 0.05 0.06 0.05 0.06 0.05 0.04 0.04 0.05 0.07 0.06 0.07 0.06 0.04 0.04 0.03 0.02 0.02 0.04 0.05 0.04 0.04 0.04 0.05 0.06 0.06 0.06 0.06 0.05
0.01 0.02 0.03 0.03 0.04 0.03 0.01 0.01 0.01 0.01 0.01 0.02 0.03 0.04 0.06 0.06 0.07 0.08 0.07 0.05 0.05 0.06 0.06 0.07 0.06 0.06 0.06 0.05 0.05 0.04 0.02 0.02 0.04 0.04 0.04 0.04 0.03 0.04 0.04 0.05 0.07 0.09 0.09
0.01 0.01 0.01 0.02 0.03 0.02 0.01 0.01 0.01 0.01 0.01 0.02 0.03 0.04 0.06 0.08 0.07 0.05 0.04 0.05 0.04 0.04 0.03 0.04 0.04 0.05 0.04 0.03 0.04 0.04 0.03 0.03 0.04 0.03 0.04 0.03 0.02 0.03 0.04 0.06 0.08 0.09 0.10
0.01 0.01 0.01 0.02 0.02 0.01 0.01 0.01 0.01 0.00 0.01 0.01 0.02 0.02 0.02 0.03 0.03 0.03 0.04 0.04 0.03 0.02 0.02 0.02 0.03 0.04 0.04 0.04 0.04 0.04 0.04 0.03 0.03 0.04 0.05 0.05 0.04 0.03 0.02 0.03 0.03 0.04 0.06
0.01 0.01 0.01 0.02 0.02 0.01 0.01 0.00 0.00 0.00 0.01 0.01 0.01 0.01 0.01 0.01 0.01 0.02 0.02 0.02 0.02 0.02 0.02 0.02 0.02 0.03 0.03 0.04 0.03 0.04 0.04 0.04 0.04 0.04 0.05 0.05 0.04 0.03 0.02 0.02 0.02 0.03 0.04
0.01 0.01 0.01 0.02 0.03 0.02 0.01 0.00 0.00 0.00 0.00 0.01 0.01 0.01 0.01 0.01 0.01 0.02 0.02 0.01 0.01 0.01 0.03 0.03 0.03 0.04 0.05 0.06 0.05 0.05 0.05 0.04 0.04 0.03 0.03 0.03 0.04 0.03 0.03 0.02 0.03 0.02 0.02
0.00 0.00 0.00 0.01 0.02 0.02 0.01 0.01 0.01 0.00 0.00 0.01 0.00 0.01 0.01 0.01 0.01 0.02 0.02 0.01 0.01 0.01 0.03 0.05 0.05 0.06 0.07 0.06 0.07 0.06 0.06 0.04 0.03 0.02 0.03 0.04 0.04 0.04 0.03 0.02 0.02 0.02 0.02
0.00 0.00 0.00 0.00 0.01 0.02 0.02 0.02 0.01 0.01 0.01 0.01 0.00 0.00 0.01 0.02 0.01 0.01 0.01 0.01 0.01 0.02 0.03 0.06 0.09 0.08 0.06 0.05 0.07 0.07 0.06 0.04 0.03 0.03 0.03 0.04 0.04 0.05 0.05 0.04 0.03 0.02 0.02
0.00 0.00 0.00 0.00 0.01 0.02 0.02 0.02 0.01 0.01 0.01 0.01 0.00 0.00 0.01 0.01 0.01 0.01 0.01 0.01 0.02 0.03 0.03 0.04 0.05 0.07 0.07 0.06 0.06 0.05 0.04 0.03 0.03 0.03 0.03 0.03 0.04 0.06 0.06 0.06 0.05 0.04 0.03
0.00 0.00 0.00 0.01 0.01 0.02 0.03 0.04 0.02 0.01 0.01 0.01 0.01 0.01 0.01 0.01 0.01 0.01 0.01 0.02 0.01 0.02 0.02 0.02 0.02 0.02 0.03 0.03 0.02 0.03 0.03 0.04 0.05 0.04 0.03 0.03 0.04 0.05 0.05 0.06 0.05 0.04 0.04
0.00 0.00 0.01 0.01 0.01 0.02 0.05 0.06 0.04 0.03 0.03 0.03 0.02 0.02 0.01 0.01 0.01 0.01 0.01 0.02 0.01 0.02 0.02 0.02 0.01 0.01 0.01 0.01 0.02 0.02 0.02 0.03 0.03 0.03 0.02 0.03 0.04 0.05 0.06 0.05 0.05 0.04 0.04
0.00 0.00 0.01 0.01 0.01 0.02 0.05 0.06 0.05 0.05 0.05 0.03 0.02 0.02 0.01 0.01 0.02 0.02 0.02 0.02 0.02 0.02 0.02 0.01 0.01 0.01 0.01 0.01 0.01 0.02 0.02 0.03 0.03 0.03 0.03 0.03 0.03 0.03 0.04 0.04 0.04 0.04 0.05
0.01 0.01 0.01 0.02 0.02 0.02 0.06 0.06 0.04 0.04 0.04 0.02 0.01 0.01 0.01 0.01 0.02 0.02 0.03 0.04 0.04 0.02 0.01 0.01 0.01 0.01 0.01 0.01 0.02 0.02 0.02 0.02 0.02 0.01 0.01 0.01 0.02 0.02 0.02 0.02 0.02 0.02 0.02
0.01 0.01 0.01 0.02 0.02 0.03 0.05 0.04 0.03 0.04 0.03 0.02 0.01 0.00 0.01 0.01 0.01 0.02 0.04 0.06 0.05 0.02 0.01 0.01 0.01 0.01 0.01 0.01 0.01 0.02 0.02 0.02 0.02 0.02 0.01 0.01 0.02 0.02 0.02 0.02 0.02 0.02 0.01
0.00 0.00 0.01 0.02 0.03 0.04 0.03 0.04 0.06 0.06 0.03 0.02 0.01 0.01 0.01 0.01 0.01 0.02 0.04 0.06 0.05 0.03 0.02 0.02 0.02 0.01 0.01 0.01 0.01 0.02 0.02 0.03 0.03 0.02 0.02 0.02 0.02 0.03 0.03 0.03 0.03 0.03 0.02
0.01 0.01 0.01 0.03 0.07 0.05 0.03 0.08 0.09 0.03 0.02 0.02 0.02 0.02 0.01 0.01 0.01 0.02 0.03 0.04 0.03 0.02 0.02 0.03 0.02 0.01 0.01 0.01 0.01 0.02 0.02 0.03 0.03 0.03 0.03 0.03 0.03 0.03 0.03 0.03 0.05 0.05 0.04
0.01 0.01 0.01 0.04 0.07 0.05 0.03 0.03 0.02 0.02 0.03 0.03 0.03 0.04 0.04 0.04 0.03 0.02 0.02 0.01 0.01 0.01 0.01 0.01 0.01 0.01 0.01 0.02 0.03 0.03 0.04 0.04 0.03 0.04 0.04 0.03 0.03 0.02 0.02 0.02 0.02 0.02 0.02
0.00 0.01 0.02 0.04 0.03 0.03 0.03 0.03 0.04 0.04 0.04 0.04 0.05 0.06 0.07 0.07 0.06 0.04 0.03 0.02 0.02 0.01 0.01 0.01 0.02 0.02 0.04 0.05 0.05 0.04 0.04 0.04 0.03 0.02 0.03 0.02 0.02 0.01 0.01 0.01 0.01 0.01 0.01
0.01 0.01 0.02 0.03 0.02 0.02 0.02 0.04 0.07 0.07 0.06 0.05 0.07 0.07 0.07 0.07 0.06 0.04 0.02 0.02 0.02 0.02 0.02 0.03 0.02 0.02 0.04 0.07 0.06 0.04 0.03 0.03 0.02 0.02 0.03 0.02 0.01 0.01 0.01 0.01 0.01 0.00 0.00
0.01 0.01 0.02 0.02 0.02 0.02 0.02 0.03 0.04 0.06 0.07 0.08 0.09 0.08 0.07 0.05 0.03 0.02 0.02 0.03 0.03 0.03 0.04 0.04 0.03 0.02 0.03 0.03 0.02 0.02 0.02 0.01 0.02 0.02 0.02 0.02 0.01 0.01 0.01 0.01 0.00 0.00 0.00
0.01 0.01 0.01 0.02 0.03 0.03 0.03 0.04 0.05 0.08 0.10 0.10 0.08 0.06 0.04 0.03 0.04 0.03 0.03 0.04 0.04 0.03 0.04 0.05 0.05 0.04 0.03 0.02 0.02 0.02 0.01 0.01 0.01 0.01 0.01 0.01 0.01 0.00 0.00 0.00 0.00 0.00 0.00
0.01 0.02 0.02 0.03 0.03 0.04 0.05 0.05 0.06 0.06 0.06 0.05 0.05 0.05 0.03 0.03 0.04 0.04 0.04 0.05 0.05 0.06 0.07 0.06 0.05 0.05 0.05 0.03 0.02 0.02 0.02 0.01 0.01 0.00 0.00 0.00 0.00 0.00 0.00 0.00 0.00 0.00 0.00
0.02 0.02 0.03 0.04 0.05 0.06 0.07 0.07 0.07 0.07 0.06 0.05 0.03 0.02 0.03 0.03 0.03 0.03 0.03 0.04 0.04 0.06 0.06 0.07 0.07 0.05 0.04 0.04 0.04 0.03 0.02 0.01 0.01 0.01 0.01 0.01 0.00 0.00 0.00 0.00 0.01 0.01 0.01
0.02 0.03 0.03 0.03 0.04 0.05 0.07 0.07 0.08 0.07 0.06 0.05 0.03 0.03 0.03 0.03 0.03 0.02 0.02 0.02 0.02 0.03 0.05 0.05 0.04 0.03 0.02 0.03 0.03 0.02 0.02 0.01 0.01 0.01 0.01 0.00 0.00 0.00 0.00 0.00 0.00 0.00 0.01
0.03 0.03 0.04 0.04 0.05 0.07 0.07 0.06 0.05 0.03 0.03 0.03 0.02 0.02 0.02 0.01 0.02 0.02 0.02 0.02 0.02 0.02 0.02 0.02 0.01 0.01 0.02 0.02 0.03 0.02 0.01 0.01 0.01 0.01 0.01 0.00 0.00 0.00 0.00 0.00 0.00 0.01 0.01
0.03 0.03 0.04 0.04 0.04 0.05 0.05 0.03 0.03 0.02 0.01 0.01 0.01 0.01 0.01 0.01 0.01 0.01 0.01 0.01 0.02 0.02 0.02 0.02 0.02 0.02 0.02 0.02 0.02 0.02 0.01 0.01 0.01 0.01 0.01 0.01 0.01 0.00 0.00 0.00 0.01 0.01 0.01
MSLP
1015.75 1015.92 1016.06 1016.17 1016.23 1016.26 1016.29 1016.33 1016.40 1016.51 1016.65 1016.80 1016.94 1017.05 1017.11 1017.14 1017.12 1017.09 1017.07 1017.08 1017.13 1017.23 1017.37 1017.55 1017.74 1017.94 1018.14 1018.34 1018.54 1018.75 1018.98 1019.24 1019.50 1019.77 1020.02 1020.24 1020.41 1020.53 1020.60 1020.62 1020.61 1020.59 1020.56
1016.19 1016.35 1016.46 1016.50 1016.49 1016.42 1016.36 1016.32 1016.34 1016.43 1016.58 1016.76 1016.93 1017.06 1017.14 1017.15 1017.10 1017.02 1016.94 1016.90 1016.91 1017.00 1017.14 1017.34 1017.55 1017.78 1017.99 1018.18 1018.38 1018.57 1018.78 1019.03 1019.30 1019.60 1019.91 1020.22 1020.48 1020.71 1020.87 1020.98 1021.04 1021.06 1021.04
1016.38 1016.55 1016.65 1016.65 1016.58 1016.44 1016.30 1016.20 1016.18 1016.26 1016.42 1016.62 1016.83 1017.00 1017.10 1017.11 1017.05 1016.93 1016.81 1016.73 1016.71 1016.77 1016.92 1017.11 1017.34 1017.58 1017.79 1017.97 1018.13 1018.29 1018.47 1018.69 1018.96 1019.28 1019.64 1020.02 1020.38 1020.72 1020.99 1021.21 1021.36 1021.45 1021.50
1016.28 1016.48 1016.59 1016.59 1016.49 1016.31 1016.13 1015.99 1015.94 1016.01 1016.18 1016.42 1016.67 1016.88 1017.00 1017.02 1016.95 1016.82 1016.67 1016.55 1016.50 1016.55 1016.68 1016.88 1017.12 1017.35 1017.55 1017.72 1017.86 1017.98 1018.12 1018.30 1018.55 1018.87 1019.26 1019.68 1020.12 1020.55 1020.93 1021.25 1021.50 1021.69 1021.82
1015.94 1016.18 1016.33 1016.36 1016.26 1016.08 1015.88 1015.72 1015.66 1015.73 1015.92 1016.18 1016.46 1016.70 1016.85 1016.88 1016.81 1016.66 1016.49 1016.35 1016.28 1016.30 1016.43 1016.63 1016.87 1017.11 1017.31 1017.47 1017.59 1017.69 1017.79 1017.94 1018.16 1018.45 1018.83 1019.27 1019.74 1020.22 1020.68 1021.08 1021.43 1021.72 1021.95
1015.46 1015.75 1015.96 1016.03 1015.98 1015.81 1015.62 1015.46 1015.40 1015.47 1015.66 1015.94 1016.24 1016.50 1016.67 1016.71 1016.64 1016.48 1016.29 1016.12 1016.03 1016.04 1016.16 1016.36 1016.61 1016.86 1017.08 1017.25 1017.37 1017.45 1017.53 1017.65 1017.83 1018.09 1018.43 1018.84 1019.30 1019.79 1020.27 1020.73 1021.16 1021.54 1021.86
1014.95 1015.30 1015.57 1015.71 1015.70 1015.58 1015.41 1015.27 1015.21 1015.28 1015.47 1015.75 1016.05 1016.32 1016.49 1016.54 1016.46 1016.29 1016.08 1015.90 1015.79 1015.78 1015.88 1016.08 1016.34 1016.61 1016.86 1017.05 1017.19 1017.29 1017.37 1017.47 1017.61 1017.81 1018.10 1018.45 1018.86 1019.31 1019.78 1020.25 1020.72 1021.16 1021.59
1014.50 1014.90 1015.24 1015.45 1015.51 1015.44 1015.30 1015.17 1015.11 1015.18 1015.35 1015.62 1015.91 1016.17 1016.34 1016.38 1016.30 1016.13 1015.91 1015.71 1015.58 1015.55 1015.64 1015.83 1016.10 1016.39 1016.66 1016.90 1017.08 1017.20 1017.30 1017.39 1017.50 1017.65 1017.86 1018.13 1018.46 1018.84 1019.26 1019.71 1020.19 1020.68 1021.19
1014.14 1014.61 1015.01 1015.28 1015.39 1015.37 1015.27 1015.15 1015.10 1015.15 1015.31 1015.56 1015.83 1016.08 1016.24 1016.28 1016.20 1016.02 1015.80 1015.59 1015.44 1015.39 1015.46 1015.65 1015.91 1016.21 1016.51 1016.78 1017.00 1017.17 1017.29 1017.38 1017.48 1017.59 1017.73 1017.91 1018.15 1018.44 1018.78 1019.19 1019.66 1020.18 1020.74
1013.87 1014.38 1014.84 1015.17 1015.33 1015.35 1015.28 1015.19 1015.14 1015.18 1015.33 1015.55 1015.80 1016.03 1016.19 1016.24 1016.17 1016.00 1015.78 1015.57 1015.42 1015.35 1015.40 1015.56 1015.80 1016.10 1016.41 1016.70 1016.96 1017.16 1017.31 1017.42 1017.51 1017.59 1017.68 1017.79 1017.94 1018.14 1018.41 1018.76 1019.19 1019.72 1020.32
1013.62 1014.16 1014.66 1015.03 1015.24 1015.30 1015.27 1015.21 1015.18 1015.23 1015.36 1015.57 1015.82 1016.04 1016.20 1016.26 1016.21 1016.07 1015.88 1015.68 1015.52 1015.44 1015.46 1015.59 1015.80 1016.07 1016.37 1016.66 1016.93 1017.16 1017.34 1017.47 1017.57 1017.63 1017.69 1017.75 1017.83 1017.96 1018.16 1018.45 1018.84 1019.35 1019.97
1013.30 1013.86 1014.37 1014.77 1015.03 1015.14 1015.17 1015.15 1015.16 1015.23 1015.38 1015.60 1015.84 1016.07 1016.24 1016.33 1016.31 1016.21 1016.06 1015.88 1015.74 1015.65 1015.65 1015.73 1015.90 1016.12 1016.38 1016.65 1016.91 1017.14 1017.34 1017.49 1017.60 1017.68 1017.72 1017.76 1017.80 1017.88 1018.02 1018.26 1018.61 1019.10 1019.70
1012.83 1013.38 1013.91 1014.33 1014.63 1014.81 1014.91 1014.97 1015.04 1015.17 1015.35 1015.59 1015.85 1016.09 1016.29 1016.40 1016.43 1016.38 1016.27 1016.14 1016.02 1015.94 1015.92 1015.97 1016.08 1016.24 1016.44 1016.66 1016.89 1017.10 1017.30 1017.47 1017.60 1017.70 1017.76 1017.80 1017.83 1017.88 1017.98 1018.18 1018.48 1018.92 1019.50
1012.18 1012.70 1013.21 1013.66 1014.01 1014.28 1014.47 1014.64 1014.81 1015.02 1015.26 1015.54 1015.82 1016.09 1016.31 1016.46 1016.53 1016.53 1016.47 1016.39 1016.31 1016.25 1016.22 1016.24 1016.30 1016.40 1016.53 1016.69 1016.87 1017.05 1017.23 1017.41 1017.56 1017.68 1017.77 1017.83 1017.88 1017.93 1018.01 1018.16 1018.42 1018.80 1019.31
1011.36 1011.82 1012.30 1012.76 1013.18 1013.54 1013.86 1014.16 1014.46 1014.77 1015.10 1015.43 1015.75 1016.03 1016.27 1016.44 1016.55 1016.59 1016.60 1016.58 1016.54 1016.51 1016.50 1016.50 1016.52 1016.57 1016.63 1016.73 1016.84 1016.98 1017.14 1017.32 1017.49 1017.64 1017.77 1017.86 1017.93 1017.99 1018.07 1018.19 1018.39 1018.70 1019.13
1010.40 1010.76 1011.21 1011.68 1012.17 1012.64 1013.11 1013.57 1014.01 1014.45 1014.87 1015.26 1015.61 1015.91 1016.15 1016.33 1016.46 1016.55 1016.60 1016.64 1016.66 1016.68 1016.69 1016.69 1016.70 1016.70 1016.72 1016.75 1016.82 1016.91 1017.04 1017.21 1017.39 1017.57 1017.74 1017.88 1017.98 1018.06 1018.13 1018.22 1018.37 1018.60 1018.94
1009.37 1009.62 1010.01 1010.50 1011.05 1011.65 1012.27 1012.88 1013.48 1014.05 1014.56 1015.01 1015.39 1015.70 1015.93 1016.11 1016.25 1016.37 1016.46 1016.55 1016.63 1016.70 1016.76 1016.79 1016.79 1016.78 1016.77 1016.76 1016.77 1016.83 1016.94 1017.09 1017.28 1017.49 1017.69 1017.87 1018.01 1018.12 1018.19 1018.26 1018.36 1018.51 1018.75
1008.34 1008.48 1008.80 1009.29 1009.91 1010.62 1011.38 1012.15 1012.90 1013.59 1014.19 1014.69 1015.09 1015.39 1015.62 1015.79 1015.93 1016.06 1016.18 1016.32 1016.46 1016.59 1016.69 1016.76 1016.79 1016.78 1016.75 1016.72 1016.71 1016.74 1016.82 1016.97 1017.16 1017.39 1017.62 1017.84 1018.02 1018.15 1018.23 1018.29 1018.35 1018.44 1018.58
1007.41 1007.42 1007.69 1008.17 1008.83 1009.64 1010.52 1011.42 1012.29 1013.08 1013.75 1014.30 1014.71 1015.01 1015.22 1015.38 1015.51 1015.65 1015.80 1015.98 1016.16 1016.35 1016.50 1016.62 1016.68 1016.69 1016.66 1016.62 1016.59 1016.61 1016.68 1016.82 1017.01 1017.25 1017.51 1017.76 1017.97 1018.13 1018.23 1018.29 1018.32 1018.36 1018.44
1006.62 1006.54 1006.74 1007.21 1007.90 1008.77 1009.73 1010.73 1011.68 1012.54 1013.27 1013.85 1014.27 1014.57 1014.77 1014.92 1015.05 1015.19 1015.36 1015.57 1015.79 1016.02 1016.22 1016.37 1016.46 1016.50 1016.48 1016.45 1016.42 1016.42 1016.48 1016.62 1016.81 1017.06 1017.34 1017.61 1017.85 1018.03 1018.16 1018.22 1018.25 1018.26 1018.29
1006.06 1005.90 1006.05 1006.50 1007.20 1008.08 1009.08 1010.12 1011.12 1012.02 1012.77 1013.37 1013.80 1014.11 1014.31 1014.46 1014.59 1014.74 1014.93 1015.15 1015.40 1015.64 1015.87 1016.04 1016.15 1016.20 1016.20 1016.18 1016.15 1016.15 1016.21 1016.34 1016.54 1016.79 1017.07 1017.35 1017.61 1017.82 1017.96 1018.05 1018.09 1018.10 1018.12
1005.77 1005.57 1005.68 1006.10 1006.77 1007.64 1008.63 1009.66 1010.65 1011.55 1012.31 1012.91 1013.35 1013.66 1013.88 1014.04 1014.18 1014.35 1014.54 1014.76 1015.01 1015.26 1015.48 1015.65 1015.77 1015.82 1015.82 1015.80 1015.78 1015.79 1015.85 1015.97 1016.16 1016.41 1016.68 1016.97 1017.23 1017.45 1017.61 1017.72 1017.78 1017.81 1017.84
1005.78 1005.58 1005.68 1006.06 1006.68 1007.49 1008.42 1009.39 1010.34 1011.20 1011.93 1012.52 1012.97 1013.30 1013.53 1013.71 1013.87 1014.04 1014.23 1014.45 1014.67 1014.88 1015.07 1015.22 1015.31 1015.35 1015.35 1015.33 1015.31 1015.32 1015.38 1015.50 1015.69 1015.92 1016.18 1016.45 1016.70 1016.92 1017.09 1017.21 1017.30 1017.36 1017.42
1006.12 1005.95 1006.04 1006.39 1006.95 1007.67 1008.50 1009.38 1010.23 1011.02 1011.70 1012.27 1012.71 1013.05 1013.31 1013.51 1013.69 1013.86 1014.03 1014.21 1014.39 1014.55 1014.68 1014.77 1014.82 1014.83 1014.81 1014.78 1014.77 1014.78 1014.85 1014.96 1015.13 1015.34 1015.58 1015.81 1016.04 1016.24 1016.40 1016.53 1016.64 1016.73 1016.83
1006.77 1006.65 1006.76 1007.07 1007.55 1008.17 1008.88 1009.62 1010.36 1011.05 1011.66 1012.19 1012.62 1012.97 1013.24 1013.46 1013.65 1013.81 1013.95 1014.08 1014.19 1014.27 1014.32 1014.34 1014.33 1014.29 1014.24 1014.21 1014.19 1014.21 1014.28 1014.39 1014.54 1014.72 1014.92 1015.11 1015.29 1015.45 1015.59 1015.71 1015.82 1015.94 1016.07
1007.65 1007.62 1007.75 1008.03 1008.44 1008.95 1009.52 1010.12 1010.73 1011.30 1011.83 1012.30 1012.71 1013.05 1013.34 1013.57 1013.75 1013.89 1014.00 1014.06 1014.09 1014.08 1014.04 1013.97 1013.89 1013.80 1013.73 1013.68 1013.66 1013.68 1013.75 1013.85 1013.98 1014.12 1014.27 1014.40 1014.52 1014.62 1014.72 1014.81 1014.91 1015.03 1015.18
Thickness
5782 5780 5777 5775 5770 5767 5764 5762 5759 5757 5755 5751 5748 5746 5744 5744 5743 5743 5742 5742 5741 5740 5739 5738 5737 5737 5736 5735 5735 5733 5731 5730 5730 5727 5725 5727 5728 5728 5728 5727 5727 5727 5726
5782 5781 5778 5775 5772 5768 5766 5763 5762 5759 5757 5754 5752 5749 5747 5745 5745 5744 5743 5742 5742 5741 5740 5739 5738 5737 5736 5735 5734 5732 5730 5728 5728 5725 5721 5718 5720 5724 5726 5725 5725 5725 5724
5785 5783 5780 5777 5774 5770 5768 5767 5764 5762 5760 5757 5754 5751 5748 5746 5744 5743 5743 5743 5742 5741 5740 5740 5738 5737 5736 5735 5734 5732 5730 5727 5727 5727 5722 5716 5713 5716 5720 5721 5721 5721 5720
5793 5788 5784 5780 5778 5775 5772 5769 5766 5764 5762 5759 5755 5751 5747 5744 5743 5743 5743 5743 5742 5741 5740 5740 5739 5737 5736 5735 5734 5733 5732 5729 5726 5725 5725 5723 5720 5714 5712 5715 5717 5717 5716
5798 5794 5790 5786 5783 5780 5776 5771 5768 5765 5763 5760 5757 5753 5749 5747 5746 5745 5744 5743 5742 5741 5740 5739 5738 5736 5735 5734 5733 5733 5732 5730 5727 5725 5723 5721 5719 5717 5712 5709 5711 5712 5713
5802 5798 5795 5791 5786 5783 5779 5774 5770 5767 5765 5762 5759 5755 5751 5749 5746 5744 5743 5741 5740 5740 5739 5738 5737 5736 5734 5733 5732 5732 5731 5729 5727 5726 5724 5721 5719 5716 5713 5709 5708 5707 5708
5805 5800 5796 5792 5788 5784 5781 5777 5772 5769 5766 5764 5760 5757 5754 5751 5747 5745 5742 5740 5739 5738 5738 5737 5735 5734 5733 5732 5731 5730 5729 5728 5726 5725 5724 5723 5721 5720 5716 5711 5707 5705 5704
5807 5804 5801 5796 5792 5788 5784 5780 5775 5771 5769 5765 5762 5759 5756 5752 5749 5746 5744 5741 5739 5739 5738 5736 5734 5733 5732 5731 5730 5728 5727 5726 5725 5724 5723 5722 5720 5719 5717 5713 5707 5702 5700
5810 5807 5804 5800 5795 5791 5787 5783 5778 5774 5771 5768 5764 5760 5757 5753 5750 5748 5745 5742 5740 5738 5737 5735 5733 5731 5730 5728 5727 5725 5724 5723 5722 5721 5720 5719 5718 5716 5715 5713 5710 5704 5697
5811 5809 5805 5801 5798 5794 5790 5786 5781 5777 5773 5769 5766 5762 5758 5755 5751 5748 5744 5742 5740 5737 5735 5733 5731 5729 5727 5726 5725 5723 5721 5720 5719 5718 5717 5716 5714 5713 5712 5710 5707 5705 5700
5813 5810 5807 5804 5800 5795 5791 5786 5782 5778 5774 5770 5766 5762 5758 5755 5751 5747 5744 5742 5739 5736 5733 5730 5728 5726 5724 5723 5721 5719 5718 5716 5715 5714 5713 5711 5710 5708 5707 5705 5703 5700 5697
5815 5811 5807 5803 5799 5795 5790 5786 5783 5778 5775 5771 5767 5763 5759 5755 5751 5747 5744 5741 5738 5734 5731 5728 5726 5723 5721 5719 5718 5716 5714 5712 5710 5709 5708 5706 5705 5703 5702 5700 5698 5695 5692
5813 5809 5804 5801 5798 5794 5790 5786 5783 5779 5775 5771 5767 5763 5759 5755 5751 5747 5743 5739 5736 5732 5728 5726 5722 5720 5718 5716 5714 5712 5710 5708 5706 5704 5703 5701 5700 5698 5696 5694 5692 5689 5687
5811 5806 5803 5801 5798 5795 5791 5787 5783 5779 5775 5771 5766 5762 5758 5754 5750 5746 5742 5737 5733 5729 5726 5722 5719 5717 5715 5713 5711 5708 5706 5703 5701 5699 5698 5696 5695 5693 5691 5689 5686 5683 5680
5808 5806 5803 5800 5797 5794 5791 5787 5783 5779 5775 5770 5765 5762 5758 5753 5749 5744 5739 5735 5730 5726 5723 5720 5717 5714 5712 5709 5707 5705 5702 5699 5696 5694 5692 5691 5690 5688 5685 5683 5680 5677 5673
5808 5807 5804 5800 5796 5794 5791 5786 5781 5777 5772 5767 5763 5759 5755 5750 5746 5740 5735 5731 5726 5723 5719 5716 5713 5711 5708 5706 5703 5700 5697 5694 5691 5688 5686 5684 5683 5681 5678 5676 5674 5671 5667
5810 5807 5804 5800 5797 5794 5791 5785 5779 5775 5770 5764 5760 5755 5751 5747 5742 5738 5732 5727 5723 5719 5715 5711 5708 5705 5703 5701 5698 5695 5691 5688 5684 5682 5680 5678 5675 5673 5670 5668 5665 5662 5659
5809 5806 5803 5800 5796 5793 5789 5783 5777 5772 5767 5761 5756 5751 5748 5744 5739 5734 5729 5724 5720 5715 5711 5707 5704 5700 5698 5695 5692 5689 5685 5682 5678 5675 5673 5670 5667 5665 5662 5660 5656 5653 5649
5811 5808 5804 5800 5795 5790 5785 5779 5772 5768 5763 5758 5753 5749 5745 5740 5734 5730 5726 5721 5716 5711 5707 5703 5699 5695 5692 5689 5685 5682 5678 5675 5671 5668 5666 5663 5660 5658 5655 5652 5648 5644 5640
5807 5804 5800 5795 5790 5786 5781 5774 5767 5763 5758 5754 5750 5746 5741 5735 5730 5725 5720 5716 5712 5707 5702 5697 5693 5690 5686 5682 5678 5675 5672 5668 5664 5661 5658 5655 5653 5650 5646 5643 5639 5635 5631
5801 5799 5795 5790 5785 5781 5776 5769 5763 5758 5754 5750 5745 5740 5735 5730 5726 5721 5715 5711 5706 5701 5696 5691 5687 5683 5679 5676 5672 5669 5665 5661 5657 5654 5650 5647 5645 5642 5639 5635 5632 5628 5624
5794 5792 5788 5783 5779 5775 5770 5763 5758 5755 5750 5745 5739 5733 5728 5725 5720 5714 5709 5705 5700 5694 5688 5684 5680 5677 5673 5670 5666 5663 5659 5655 5651 5647 5643 5640 5637 5634 5631 5627 5623 5619 5616
5785 5784 5780 5774 5771 5768 5764 5757 5753 5749 5744 5737 5732 5727 5721 5717 5713 5708 5703 5697 5693 5688 5682 5678 5674 5671 5667 5663 5659 5656 5652 5648 5644 5640 5637 5633 5630 5627 5623 5619 5616 5612 5608
5774 5773 5770 5765 5761 5759 5755 5750 5746 5742 5736 5729 5723 5719 5714 5709 5705 5700 5696 5692 5687 5682 5677 5672 5668 5664 5660 5656 5652 5648 5644 5640 5637 5633 5629 5626 5622 5619 5615 5611 5608 5604 5600
5763 5763 5761 5756 5752 5749 5746 5742 5738 5733 5727 5721 5716 5711 5707 5702 5697 5693 5688 5684 5681 5677 5672 5668 5663 5658 5654 5651 5646 5642 5638 5634 5630 5625 5621 5617 5613 5610 5606 5603 5599 5596 5592
5752 5751 5749 5747 5745 5741 5736 5733 5729 5723 5719 5713 5708 5704 5699 5694 5690 5685 5680 5675 5672 5668 5664 5660 5656 5652 5648 5644 5640 5635 5632 5628 5623 5619 5614 5610 5606 5603 5599 5596 5592 5588 5585